Location: New Town
(33.2710°N, 90.7534°W)
Time: 13:27:17
(UTC+00:00)

Transit 2A - Visible Passes

Search period start: 13 May 2021 00:00
Search period end: 23 May 2021 00:00
Orbit: 602 x 957 km, 66.7° (Epoch: 12 May)

Date Brightness Start Highest point End Pass type
(mag) Time Alt. Az. Time Alt. Az. Time Alt. Az.
13 May 8.5 06:41:45 12° NE 06:41:45 12° NE 06:42:04 10° NE visible
13 May 7.8 08:22:13 16° NW 08:22:13 16° NW 08:24:01 10° NNW visible
14 May 7.8 07:48:47 19° NNW 07:48:47 19° NNW 07:50:31 10° N visible
15 May 8.0 07:15:18 19° N 07:15:18 19° N 07:16:44 10° N visible
16 May 8.3 06:41:48 16° NNE 06:41:48 16° NNE 06:42:45 10° NNE visible
17 May 8.5 06:08:15 12° NNE 06:08:15 12° NNE 06:08:36 10° NNE visible
18 May 8.3 07:15:06 13° NNW 07:15:06 13° NNW 07:15:57 10° NNW visible
19 May 8.3 06:41:28 15° NNW 06:41:28 15° NNW 06:42:33 10° N visible
20 May 8.3 06:07:48 16° N 06:07:48 16° N 06:08:49 10° N visible
21 May 8.3 05:34:04 15° NNE 05:34:04 15° NNE 05:34:52 10° NNE visible
22 May 8.3 05:00:17 13° NNE 05:00:17 13° NNE 05:00:45 10° NNE visible
